Miscellaneous Local Product
Issued by NWS North Platte, NE

Home | Current Version | Previous Version | Text Only | Print | Product List | Glossary On
Versions: 1 2 3 4 5 6 7 8 9 10 11 12 13 14 15 16 17 18 19 20 21 22 23 24 25 26 27 28 29 30 31 32 33 34 35 36 37 38 39 40 41 42 43 44 45 46 47 48 49 50
801
AXUS43 KLBF 171310
MISLBF


WESTERN AND NORTH CENTRAL NEBRASKA HOURLY WEATHER ROUNDUP
NATIONAL WEATHER SERVICE NORTH PLATTE NE
700 AM CST WED JAN 17 2018

NOTE: "FAIR" INDICATES FEW OR NO CLOUDS BELOW 12,000 FEET WITH NO
SIGNIFICANT WEATHER AND/OR OBSTRUCTIONS TO VISIBILITY.

NOTE: STATIONS NOT REPORTING VARIABLES SUCH AS SKY/WEATHER OR
PRESSURE ARE PROVIDED BY RAWS AND APRS NETWORKS AND ARE NOT UNDER
NATIONAL WEATHER SERVICE QUALITY CONTROL.

...OBSERVATIONS IN AND NEAR THE EASTERN PANHANDLE OF NEBRASKA...

CITY           SKY/WX    TMP DP  RH WIND       PRES   REMARKS
PINE RIDGE     CLEAR      9   3  77 W3        30.21S
GORDON         FAIR      13   4  68 W12       30.21R WCI  -1
CHADRON        CLEAR      8   2  76 SW6       30.23R WCI  -2
ALLIANCE       CLEAR      0  -4  83 W7        30.21S WCI -13
SIDNEY         CLEAR      9   3  77 W7        30.23R WCI  -2
CRESCENT LAKE    N/A      8  -1  68 CALM        N/A
$$

...OBSERVATIONS IN NORTHERN NEBRASKA AND FAR SOUTHERN SOUTH DAKOTA...

CITY           SKY/WX    TMP DP  RH WIND       PRES   REMARKS
WINNER         FAIR      20   7  57 SW13      30.22S WCI   7
VALENTINE      CLEAR      9   2  73 W7        30.23S WCI  -2
AINSWORTH      CLEAR     13   3  66 SW10      30.25S WCI  -1
O`NEILL        CLEAR     10   2  68 SW13      30.30F WCI  -5
THEDFORD       CLEAR      8   1  70 CALM      30.27S
BROKEN BOW     CLEAR      4  -4  69 S6        30.33S WCI  -7
ORD            CLEAR      9   0  67 CALM      30.36S
ALBION         CLOUDY     9   1  68 S10       30.39S WCI  -5
VALENTINE NWR    N/A     11   0  60 CALM        N/A
HALSEY           N/A      8  -3  61 SW5         N/A  WCI   0
BUTTE            N/A     10   3  72 SW10        N/A  WCI  -4
CHAMBERS         N/A      9  -2  60 S8          N/A  WCI  -3
EWING            N/A      9   3  75 SW8         N/A  WCI  -3
$$

...OBSERVATIONS IN SOUTHWEST NEBRASKA AND FAR NORTHEAST COLORADO...

CITY           SKY/WX    TMP DP  RH WIND       PRES   REMARKS
WRAY           FAIR       5   1  85 W5        30.27S WCI  -4
HOLYOKE        FAIR       9   1  72 W9        30.25S WCI  -5
IMPERIAL       CLEAR      3  -1  83 SW5       30.28F WCI  -6
OGALLALA       CLEAR      4   0  80 CALM      30.29R
NORTH PLATTE   CLEAR      6  -2  69 S3        30.33S
MCCOOK         CLEAR      2  -4  76 N3        30.35F
LEXINGTON      CLEAR     10  -1  63 SW6       30.37S WCI   0
STAPLETON        N/A      4  -2  76 CALM        N/A
GOTHENBURG       N/A      7  -1  69 CALM        N/A
CALLAWAY         N/A      8   1  73 S6          N/A  WCI  -2
$$

...OBSERVATIONS IN CENTRAL LINCOLN COUNTY AREA...

CITY           SKY/WX    TMP DP  RH WIND       PRES   REMARKS
N.P. AIRPORT   CLEAR      6  -2  69 S3        30.33S
N.P. DOWNTOWN    N/A      4   0  81 CALM        N/A
N.P. SOUTHEAST   N/A      5  -1  77 CALM        N/A
N.P. HILLCREST   N/A      6   1  78 CALM        N/A
$$

...SOME OBSERVATIONS FROM AROUND THE REGION...

CITY           SKY/WX    TMP DP  RH WIND       PRES   REMARKS
DENVER         CLEAR     17   6  62 NW3       30.21R
BERTHOUD PASS  FAIR      12   0  57 NW25      30.29S WCI  -8
GRAND JUNCTION PTCLDY    15  12  88 CALM      30.39F
LARAMIE        CLEAR      5  -5  63 NE5       30.25R WCI  -4
CHEYENNE       CLEAR     15   1  53 W7        30.21R WCI   5
CASPER         CLEAR     27  10  49 SW14      30.27R WCI  16
BISMARCK       PTCLDY    -1  -6  79 CALM      30.12F
RAPID CITY     PTCLDY    16   4  59 N12       30.18R WCI   3
PIERRE         CLEAR      6   3  87 S5        30.22F WCI  -3
SIOUX FALLS    CLOUDY     8   1  73 S10       30.34F WCI  -6
OMAHA          CLOUDY     2  -3  80 SE7       30.56R WCI -11
GRAND ISLAND   CLOUDY     8   0  69 SW13      30.42F WCI  -8
SCOTTSBLUFF    CLEAR      4   0  83 NW10      30.25R WCI -11
KANSAS CITY    CLOUDY    -1  -4  87 SW6       30.64R WCI -13
HILL CITY      CLOUDY     9  -1  64 SW7       30.43F WCI  -2
WICHITA        CLOUDY     2  -2  83 S6        30.63F WCI  -9
DODGE CITY     CLOUDY     6  -5  60 S12       30.44F WCI  -9
OKLAHOMA CITY  CLOUDY     6   0  76 S3        30.67S
DALLAS         CLOUDY    15   2  56 CALM      30.73R
AMARILLO       CLOUDY     9  -1  64 S10       30.42S WCI  -5
$$




USA.gov is the U.S. government's official web portal to all federal, state and local government web resources and services.